Tracking 19854 objects as of 23-Sep-2019
HD Live streaming from Space Station
objects crossing your sky now

SL-8 DEB

Track SL-8 DEB now!
10-day predictions


NORAD ID: 5052
Int'l Code: 1971-020C
Perigee: 983.4 km
Apogee: 1,005.9 km
Inclination: 65.8 °
Period: 104.9 minutes
Semi major axis: 7365 km
RCS: 0.4335 m2 (medium)
Launch date: March 18, 1971
Source: Commonwealth of Independent States (former USSR) (CIS)
Launch site: PLESETSK MISSILE AND SPACE COMPLEX (PKMTR)

Note: This is SATELLITE DEBRIS
aabbcc
Your satellite tracking list
Your tracking list is empty




NASA's NSSDC Master Catalog

Two Line Element Set (TLE):
1  5052U 71020C   19264.55251764 -.00000074  00000-0  64019-5 0  9996
2  5052  65.8197  77.5179 0015282 273.0342 158.9509 13.73366523431559
Source of the keplerian elements: AFSPC